Meteo pe oră la Hvar

Astăzi, 28 Ianuarie, Joi

Timp Temperatura Precipitaţii Vânt Presiune Umiditate
00:00 +2°C° 0 mm 3 m/s 760 mmHg 58%
01:00 +2°C° 0 mm 3 m/s 760 mmHg 58%
02:00 +2°C° 0 mm 3 m/s 760 mmHg 57%
03:00 +2°C° 0 mm 3 m/s 760 mmHg 56%
04:00 +2°C° 0 mm 3 m/s 759 mmHg 55%
05:00 +3°C° 0 mm 2 m/s 760 mmHg 55%
06:00 +3°C° 0 mm 2 m/s 760 mmHg 56%
07:00 +3°C° 0 mm 2 m/s 760 mmHg 56%
08:00 +4°C° 0 mm 2 m/s 760 mmHg 55%
09:00 +6°C° 0 mm 1 m/s 760 mmHg 54%
10:00 +7°C° 0 mm 1 m/s 760 mmHg 53%
11:00 +8°C° 0 mm 1 m/s 760 mmHg 53%
12:00 +9°C° 0 mm 1 m/s 760 mmHg 54%
13:00 +9°C° 0 mm 1 m/s 759 mmHg 54%
14:00 +8°C° 0 mm 2 m/s 759 mmHg 59%
15:00 +8°C° 0 mm 2 m/s 758 mmHg 64%
16:00 +7°C° 0 mm 3 m/s 757 mmHg 69%
17:00 +7°C° 0 mm 3 m/s 758 mmHg 71%
18:00 +6°C° 0 mm 4 m/s 758 mmHg 74%
19:00 +6°C° 0 mm 4 m/s 758 mmHg 76%
20:00 +6°C° 0 mm 5 m/s 758 mmHg 77%
21:00 +6°C° 0 mm 5 m/s 758 mmHg 78%
22:00 +6°C° 0 mm 5 m/s 758 mmHg 79%
23:00 +6°C° 0 mm 5 m/s 758 mmHg 79%

Mâine, 29 Ianuarie, Vineri

Timp Temperatura Precipitaţii Vânt Presiune Umiditate
00:00 +6°C° 0 mm 5 m/s 758 mmHg 79%
01:00 +6°C° 0 mm 5 m/s 758 mmHg 79%
02:00 +5°C° 0 mm 6 m/s 757 mmHg 81%
03:00 +5°C° 0 mm 6 m/s 757 mmHg 82%
04:00 +5°C° 0 mm 6 m/s 757 mmHg 83%
05:00 +5°C° 0 mm 7 m/s 757 mmHg 83%
06:00 +5°C° 0 mm 7 m/s 756 mmHg 84%
07:00 +5°C° 0 mm 7 m/s 756 mmHg 84%
08:00 +6°C° 0 mm 7 m/s 756 mmHg 83%
09:00 +6°C° 0 mm 7 m/s 756 mmHg 82%
10:00 +8°C° 0 mm 7 m/s 755 mmHg 81%
11:00 +7°C° 0.1 mm 8 m/s 754 mmHg 84%
12:00 +7°C° 0.1 mm 9 m/s 754 mmHg 86%
13:00 +7°C° 0.1 mm 9 m/s 753 mmHg 88%
14:00 +7°C° 1.1 mm 10 m/s 752 mmHg 90%
15:00 +7°C° 1.1 mm 10 m/s 751 mmHg 91%
16:00 +7°C° 1.1 mm 10 m/s 749 mmHg 93%
17:00 +8°C° 3.4 mm 9 m/s 749 mmHg 93%
18:00 +9°C° 3.4 mm 8 m/s 748 mmHg 94%
19:00 +9°C° 3.4 mm 7 m/s 747 mmHg 94%
20:00 +9°C° 3 mm 7 m/s 747 mmHg 93%
21:00 +9°C° 3 mm 8 m/s 747 mmHg 91%
22:00 +8°C° 3 mm 9 m/s 747 mmHg 90%
23:00 +8°C° 0.1 mm 9 m/s 747 mmHg 86%

Poimâine, 30 Ianuarie, Sâmbătă

Timp Temperatura Precipitaţii Vânt Presiune Umiditate
00:00 +8°C° 0.1 mm 9 m/s 748 mmHg 83%
01:00 +7°C° 0.1 mm 10 m/s 748 mmHg 80%
02:00 +7°C° 0 mm 9 m/s 749 mmHg 81%
03:00 +7°C° 0 mm 8 m/s 749 mmHg 82%
04:00 +6°C° 0 mm 8 m/s 749 mmHg 83%
05:00 +6°C° 0 mm 7 m/s 749 mmHg 81%
06:00 +7°C° 0 mm 6 m/s 750 mmHg 80%
07:00 +7°C° 0 mm 4 m/s 750 mmHg 79%
08:00 +8°C° 0 mm 5 m/s 750 mmHg 79%
09:00 +9°C° 0 mm 5 m/s 751 mmHg 78%
10:00 +9°C° 0 mm 5 m/s 751 mmHg 78%
11:00 +11°C° 0 mm 4 m/s 751 mmHg 76%
12:00 +11°C° 0 mm 3 m/s 751 mmHg 74%
13:00 +13°C° 0 mm 2 m/s 750 mmHg 73%
14:00 +12°C° 0 mm 2 m/s 750 mmHg 75%
15:00 +12°C° 0 mm 1 m/s 750 mmHg 77%
16:00 +12°C° 0 mm 1 m/s 749 mmHg 78%
17:00 +10°C° 0 mm 2 m/s 749 mmHg 80%
18:00 +10°C° 0 mm 4 m/s 749 mmHg 82%
19:00 +9°C° 0 mm 5 m/s 750 mmHg 83%
20:00 +9°C° 0 mm 7 m/s 749 mmHg 84%
21:00 +8°C° 0 mm 9 m/s 749 mmHg 84%
22:00 +9°C° 0 mm 10 m/s 748 mmHg 85%
23:00 +9°C° 0.1 mm 11 m/s 748 mmHg 85%

31 Ianuarie, Duminică

Timp Temperatura Precipitaţii Vânt Presiune Umiditate
00:00 +9°C° 0.1 mm 12 m/s 747 mmHg 85%
01:00 +10°C° 0.1 mm 12 m/s 747 mmHg 85%
02:00 +10°C° 2.3 mm 13 m/s 746 mmHg 87%
03:00 +10°C° 2.3 mm 14 m/s 745 mmHg 89%
04:00 +10°C° 2.3 mm 15 m/s 743 mmHg 92%
05:00 +10°C° 1.6 mm 13 m/s 743 mmHg 89%
06:00 +10°C° 1.6 mm 12 m/s 743 mmHg 86%
07:00 +12°C° 1.6 mm 11 m/s 743 mmHg 84%
08:00 +12°C° 0.4 mm 10 m/s 743 mmHg 82%
09:00 +12°C° 0.4 mm 8 m/s 743 mmHg 81%
10:00 +12°C° 0.4 mm 7 m/s 743 mmHg 80%
11:00 +13°C° 0.6 mm 6 m/s 743 mmHg 79%
12:00 +13°C° 0.6 mm 5 m/s 742 mmHg 77%
13:00 +13°C° 0.6 mm 4 m/s 742 mmHg 76%
14:00 +12°C° 0.5 mm 3 m/s 742 mmHg 76%
15:00 +12°C° 0.5 mm 3 m/s 742 mmHg 76%
16:00 +12°C° 0.5 mm 3 m/s 742 mmHg 76%
17:00 +12°C° 0.5 mm 3 m/s 742 mmHg 78%
18:00 +11°C° 0.5 mm 4 m/s 743 mmHg 80%
19:00 +11°C° 0.5 mm 4 m/s 743 mmHg 82%
20:00 +11°C° 0.6 mm 4 m/s 743 mmHg 82%
21:00 +10°C° 0.6 mm 4 m/s 744 mmHg 83%
22:00 +10°C° 0.6 mm 4 m/s 744 mmHg 84%
23:00 +10°C° 0.3 mm 4 m/s 744 mmHg 84%

1 Februarie, Luni

Timp Temperatura Precipitaţii Vânt Presiune Umiditate
00:00 +10°C° 0.3 mm 4 m/s 744 mmHg 84%
01:00 +10°C° 0.3 mm 4 m/s 744 mmHg 83%
02:00 +10°C° 0.3 mm 4 m/s 743 mmHg 84%
03:00 +10°C° 0.3 mm 3 m/s 743 mmHg 84%
04:00 +10°C° 0.3 mm 3 m/s 743 mmHg 85%
05:00 +10°C° 0.1 mm 3 m/s 743 mmHg 85%
06:00 +9°C° 0.1 mm 2 m/s 744 mmHg 85%
07:00 +9°C° 0.1 mm 2 m/s 744 mmHg 86%
08:00 +10°C° 0 mm 2 m/s 744 mmHg 84%
09:00 +10°C° 0 mm 2 m/s 744 mmHg 82%
10:00 +12°C° 0 mm 2 m/s 745 mmHg 80%
11:00 +12°C° 0 mm 2 m/s 745 mmHg 77%
12:00 +12°C° 0 mm 2 m/s 745 mmHg 75%
13:00 +13°C° 0 mm 2 m/s 746 mmHg 72%
14:00 +13°C° 0 mm 2 m/s 746 mmHg 73%
15:00 +13°C° 0 mm 2 m/s 746 mmHg 74%
16:00 +13°C° 0 mm 2 m/s 747 mmHg 76%
17:00 +12°C° 0 mm 2 m/s 748 mmHg 76%
18:00 +12°C° 0 mm 2 m/s 748 mmHg 77%
19:00 +10°C° 0 mm 2 m/s 749 mmHg 77%
20:00 +10°C° 0 mm 2 m/s 750 mmHg 77%
21:00 +10°C° 0 mm 3 m/s 750 mmHg 77%
22:00 +10°C° 0 mm 3 m/s 751 mmHg 78%
23:00 +9°C° 0 mm 3 m/s 751 mmHg 76%

2 Februarie, Marţi

Timp Temperatura Precipitaţii Vânt Presiune Umiditate
00:00 +9°C° 0 mm 3 m/s 752 mmHg 75%
01:00 +8°C° 0 mm 4 m/s 752 mmHg 74%
02:00 +8°C° 0 mm 4 m/s 753 mmHg 74%
03:00 +7°C° 0 mm 4 m/s 753 mmHg 74%
04:00 +7°C° 0 mm 4 m/s 754 mmHg 74%
05:00 +7°C° 0 mm 4 m/s 754 mmHg 74%
06:00 +7°C° 0 mm 4 m/s 755 mmHg 74%
07:00 +8°C° 0 mm 3 m/s 756 mmHg 74%
08:00 +9°C° 0 mm 3 m/s 756 mmHg 71%
09:00 +10°C° 0 mm 3 m/s 757 mmHg 67%
10:00 +12°C° 0 mm 2 m/s 757 mmHg 64%
11:00 +13°C° 0 mm 2 m/s 757 mmHg 61%
12:00 +13°C° 0 mm 1 m/s 757 mmHg 58%
13:00 +14°C° 0 mm 1 m/s 758 mmHg 54%
14:00 +14°C° 0 mm 1 m/s 758 mmHg 58%
15:00 +14°C° 0 mm 1 m/s 758 mmHg 62%
16:00 +13°C° 0 mm 1 m/s 758 mmHg 66%
17:00 +13°C° 0 mm 1 m/s 758 mmHg 67%
18:00 +12°C° 0 mm 1 m/s 758 mmHg 68%
19:00 +11°C° 0 mm 1 m/s 759 mmHg 70%
20:00 +11°C° 0 mm 1 m/s 759 mmHg 70%
21:00 +11°C° 0 mm 1 m/s 759 mmHg 69%
22:00 +11°C° 0 mm 1 m/s 759 mmHg 69%
23:00 +10°C° 0 mm 2 m/s 759 mmHg 69%
Arată mai mult

Formular de consimțământ

Meteoprog și furnizorii noștri de servicii pot stoca și accesa date personale, precum cookies, identificatori de dispozitiv sau alte tehnologii similare pe dispozitivul dumneavoastră și procesa astfel de date pentru a personaliza conținutul și reclamele, dar și pentru a oferi caracteristici de social media și pentru a analiza traficul.

  • Stocarea și/sau accesarea informațiilor pe dispozitivul dumneavoastră

    Cookies, identificatori de dispozitiv sau alte informații pot fi stocate sau accesate pe dispozitiv în scopurile indicate mai sus.

  • Reclame și conținut personalizat, evaluarea reclamelor și a conținutului, informații despre audiențe și dezvoltarea produselor

    Reclamele și conținutul pot fi personalizate pe baza unui profil. Pot fi adăugate date suplimentare pentru a personaliza mai bine reclamele și conținutul. Performanța reclamelor și conținutului poate fi măsurată. Pot fi obținute informații despre utilizatorii care au văzut reclamele și conținutul. Aceste date pot fi utilizate pentru a dezvolta sau îmbunătăți experiența utilizatorilor, sistemele și software-ul.

Dând clic pe ‘Sunt de acord’, permiteți utilizarea cookie-urilor menționate, a identificatorilor de dispozitiv, balizelor web sau altor tehnologii similare. Setările pot fi modificate din browser-ul dispozitivului dumneavoastră.

În anumite scopuri, interesele legitime pot prima asupra consimțământului. Puteți citi mai multe informații în acest sens în Politica privind Confidențialitatea Datelor și Cookie.